Weather History for Black River Falls, WI

Change the Weather History Date:

Tuesday, July 9, 2013

  Actual Average (KLSE) Record (KLSE)
Temperature  
Mean Temperature 74 °F 74 °F  
Max Temperature 89 °F 84 °F 102 °F (1936)
Min Temperature 61 °F 63 °F 46 °F (1895)
Degree Days  
Heating Degree Days 0 0  
Month to date heating degree days 0  
Since 1 July heating degree days 0  
Cooling Degree Days 10 9  
Month to date cooling degree days 80  
Year to date cooling degree days 294  
Growing Degree Days 24 (Base 50)    
Moisture  
Dew Point 69 °F    
Average Humidity 83    
Maximum Humidity 100    
Minimum Humidity 45    
Precipitation  
Precipitation 0.03 in 0.14 in 2.44 in (1912)
Month to date precipitation 1.24  
Year to date precipitation 16.65  
Snow  
Snow 0.00 in 0.00 in 0.00 in (2002)
Month to date snowfall 0.0  
Since 1 July snowfall 0.0  
Snow Depth -    
Sea Level Pressure  
Sea Level Pressure 29.88 in    
Wind  
Wind Speed 4 mph (SW)    
Max Wind Speed 17 mph    
Max Gust Speed 30 mph    
Visibility 8 miles    
Events Fog , Rain , Thunderstorm    
T = Trace of Precipitation, MM = Missing Value Source: NWS Daily Summary

Daily Weather History Graph

Daily Weather History Graph

Search for Another Location

Airport:

Trip Planner

Search our weather history database for the weather conditions in past years. The results will help you decide how hot, cold, wet, or windy it might be!

Date:

Astronomy

Jul. 09, 2013 Rise Set
Actual Time 5:28 AM CDT 8:48 PM CDT
Civil Twilight 4:53 AM CDT 9:23 PM CDT
Nautical Twilight 4:06 AM CDT 10:10 PM CDT
Astronomical Twilight 3:08 AM CDT 11:07 PM CDT
Moon 6:58 AM CDT (7/9) 9:19 PM CDT (7/9)
Length of Visible Light 16h 30m
Length of Day
15h 19m
New Moon, 2% of the Moon is Illuminated
Jul 9
New Moon
Jul 15
First Quarter
Jul 22
Full
Jul 29
Last Quarter
Aug 6
New

Hourly Weather History & Observations

Time (CDT) Temp. Heat Index Dew Point Humidity Pressure Visibility Wind Dir Wind Speed Gust Speed Precip Events Conditions
12:15 AM 67.3 °F - 67.3 °F 100% 29.99 in 5.0 mi Calm Calm - N/A   Clear
12:35 AM 67.1 °F - 67.1 °F 100% 29.99 in 5.0 mi Calm Calm - N/A   Clear
12:55 AM 66.2 °F - 66.2 °F 100% 29.98 in 4.0 mi Calm Calm - N/A   Clear
1:15 AM 66.4 °F - 66.4 °F 100% 29.97 in 5.0 mi Calm Calm - N/A   Clear
1:35 AM 65.8 °F - 65.8 °F 100% 29.97 in 7.0 mi Calm Calm - N/A   Clear
1:55 AM 65.3 °F - 65.3 °F 100% 29.97 in 4.0 mi Calm Calm - N/A   Clear
2:15 AM 64.6 °F - 64.6 °F 100% 29.97 in 7.0 mi Calm Calm - N/A   Clear
2:35 AM 64.0 °F - 64.0 °F 100% 29.97 in 3.0 mi Calm Calm - N/A   Clear
2:55 AM 63.9 °F - 63.9 °F 100% 29.97 in 3.0 mi Calm Calm - N/A   Clear
3:15 AM 63.1 °F - 63.1 °F 100% 29.96 in 4.0 mi Calm Calm - N/A   Scattered Clouds
3:35 AM 62.4 °F - 62.4 °F 100% 29.96 in 4.0 mi Calm Calm - N/A   Mostly Cloudy
3:55 AM 62.2 °F - 62.2 °F 100% 29.96 in 0.2 mi Calm Calm - N/A Fog Fog
4:15 AM 62.4 °F - 62.4 °F 100% 29.95 in 3.0 mi Calm Calm - N/A   Scattered Clouds
4:35 AM 61.5 °F - 61.5 °F 100% 29.94 in 5.0 mi Calm Calm - N/A   Clear
4:55 AM 61.3 °F - 61.3 °F 100% 29.94 in 0.2 mi Calm Calm - N/A Fog Fog
5:15 AM 61.2 °F - 61.2 °F 100% 29.93 in 0.2 mi Calm Calm - N/A Fog Fog
5:35 AM 61.2 °F - 61.2 °F 100% 29.94 in 0.5 mi Calm Calm - N/A Fog Fog
5:55 AM 61.5 °F - 61.5 °F 100% 29.94 in 5.0 mi Calm Calm - N/A   Scattered Clouds
6:15 AM 63.0 °F - 63.0 °F 100% 29.94 in 4.0 mi Calm Calm - N/A   Scattered Clouds
6:35 AM 65.3 °F - 65.3 °F 100% 29.93 in 4.0 mi Calm Calm - N/A   Scattered Clouds
6:55 AM 67.6 °F - 67.6 °F 100% 29.92 in 1.8 mi Calm Calm - N/A   Mostly Cloudy
7:15 AM 70.5 °F - 70.5 °F 100% 29.92 in 5.0 mi Calm Calm - N/A   Scattered Clouds
7:35 AM 72.0 °F - 71.6 °F 99% 29.92 in 7.0 mi Calm Calm - N/A   Clear
7:55 AM 73.6 °F - 72.5 °F 96% 29.90 in 7.0 mi Calm Calm - N/A   Clear
8:15 AM 75.6 °F - 73.8 °F 94% 29.90 in 7.0 mi Calm Calm - N/A   Clear
8:35 AM 77.0 °F - 74.5 °F 92% 29.90 in 7.0 mi South 3.5 mph - N/A   Clear
8:55 AM 79.7 °F - 75.2 °F 86% 29.90 in 10.0 mi SSE 6.9 mph - N/A   Clear
9:15 AM 79.5 °F - 75.2 °F 87% 29.91 in 10.0 mi SSW 8.1 mph - N/A Thunderstorm Mostly Cloudy
9:35 AM 78.1 °F - 72.9 °F 84% 29.91 in 10.0 mi SSW 11.5 mph 19.6 mph N/A   Mostly Cloudy
9:55 AM 77.2 °F - 71.1 °F 81% 29.91 in 10.0 mi SW 12.7 mph 19.6 mph N/A Thunderstorm Scattered Clouds
10:15 AM 75.6 °F - 71.2 °F 86% 29.88 in 10.0 mi SW 4.6 mph - N/A Rain Light Rain
10:35 AM 77.4 °F - 72.1 °F 84% 29.88 in 10.0 mi WSW 4.6 mph - N/A   Clear
10:55 AM 76.3 °F - 71.8 °F 86% 29.90 in 10.0 mi SW 5.8 mph - N/A Rain Light Rain
11:15 AM 76.1 °F - 71.4 °F 85% 29.90 in 10.0 mi SW 4.6 mph - N/A Rain Light Rain
11:35 AM 74.7 °F - 72.1 °F 92% 29.89 in 7.0 mi SSW 4.6 mph - N/A Rain Rain
11:55 AM 73.8 °F - 72.9 °F 97% 29.87 in 10.0 mi South 6.9 mph - 0.02 in Rain Light Rain
12:15 PM 75.0 °F - 73.6 °F 95% 29.86 in 10.0 mi SSW 8.1 mph - N/A   Clear
12:21 PM 75.2 °F - 73.4 °F 94% 29.87 in 10.0 mi South 9.2 mph - N/A   Clear
12:35 PM 75.6 °F - 72.9 °F 91% 29.86 in 10.0 mi SSW 10.4 mph - N/A   Clear
12:41 PM 77.0 °F - 73.4 °F 89% 29.86 in 10.0 mi SW 11.5 mph 17.3 mph N/A   Clear
12:55 PM 78.3 °F - 72.9 °F 83% 29.85 in 10.0 mi SSW 11.5 mph 23.0 mph N/A   Scattered Clouds
1:01 PM 78.8 °F - 73.4 °F 83% 29.85 in 10.0 mi SSW 12.7 mph 19.6 mph N/A   Scattered Clouds
1:15 PM 80.8 °F 85.2 °F 72.5 °F 76% 29.84 in 10.0 mi SW 15.0 mph 20.7 mph N/A   Scattered Clouds
1:35 PM 81.5 °F 85.1 °F 70.2 °F 68% 29.84 in 10.0 mi SSW 10.4 mph 20.7 mph N/A   Scattered Clouds
1:55 PM 82.8 °F 86.9 °F 70.2 °F 66% 29.83 in 10.0 mi SW 10.4 mph - N/A   Scattered Clouds
2:15 PM 83.8 °F 88.3 °F 70.7 °F 64% 29.82 in 10.0 mi SW 8.1 mph 16.1 mph N/A   Scattered Clouds
2:35 PM 85.6 °F 90.8 °F 70.9 °F 61% 29.82 in 10.0 mi WSW 9.2 mph - N/A   Clear
2:55 PM 86.7 °F 92.1 °F 70.7 °F 59% 29.83 in 10.0 mi WSW 11.5 mph 17.3 mph N/A   Scattered Clouds
3:15 PM 86.7 °F 91.7 °F 70.3 °F 58% 29.81 in 10.0 mi SW 12.7 mph 21.9 mph N/A   Scattered Clouds
3:35 PM 86.7 °F 91.7 °F 70.5 °F 58% 29.80 in 10.0 mi SSW 10.4 mph 16.1 mph N/A   Scattered Clouds
3:55 PM 85.3 °F 90.4 °F 71.1 °F 62% 29.80 in 10.0 mi SSW 8.1 mph - N/A   Mostly Cloudy
4:15 PM 82.8 °F 88.7 °F 73.4 °F 73% 29.80 in 7.0 mi SW 11.5 mph - 0.01 in Rain Light Rain
4:35 PM 85.8 °F 93.4 °F 73.9 °F 67% 29.80 in 10.0 mi West 10.4 mph 20.7 mph 0.01 in   Mostly Cloudy
4:55 PM 86.5 °F 93.3 °F 72.5 °F 63% 29.79 in 10.0 mi SW 11.5 mph - 0.01 in   Clear
5:15 PM 86.9 °F 92.9 °F 71.4 °F 60% 29.80 in 10.0 mi West 13.8 mph 20.7 mph N/A   Mostly Cloudy
5:35 PM 88.5 °F 90.1 °F 64.9 °F 45% 29.80 in 10.0 mi West 16.1 mph 26.5 mph N/A   Scattered Clouds
5:55 PM 88.2 °F 90.9 °F 66.7 °F 49% 29.80 in 10.0 mi West 13.8 mph 20.7 mph N/A   Scattered Clouds
6:15 PM 86.7 °F 88.7 °F 65.7 °F 49% 29.81 in 10.0 mi West 17.3 mph 29.9 mph N/A   Scattered Clouds
6:35 PM 86.0 °F 87.3 °F 64.4 °F 48% 29.82 in 10.0 mi West 15.0 mph 21.9 mph N/A   Scattered Clouds
6:55 PM 83.7 °F 85.1 °F 64.2 °F 52% 29.82 in 10.0 mi West 15.0 mph 25.3 mph N/A   Scattered Clouds
7:15 PM 84.2 °F 85.8 °F 64.9 °F 52% 29.83 in 10.0 mi West 10.4 mph 17.3 mph N/A   Scattered Clouds
7:35 PM 83.3 °F 85.1 °F 64.9 °F 54% 29.83 in 10.0 mi West 9.2 mph - N/A   Scattered Clouds
7:55 PM 82.2 °F 84.4 °F 66.0 °F 58% 29.82 in 10.0 mi West 6.9 mph - N/A   Clear
8:15 PM 80.8 °F 83.1 °F 66.7 °F 62% 29.82 in 10.0 mi WSW 6.9 mph - N/A   Clear
8:35 PM 79.7 °F - 66.7 °F 64% 29.82 in 10.0 mi WSW 5.8 mph - N/A   Clear
8:55 PM 78.1 °F - 66.9 °F 68% 29.83 in 10.0 mi WSW 5.8 mph - N/A   Clear
9:15 PM 77.0 °F - 67.1 °F 71% 29.83 in 10.0 mi WSW 4.6 mph - N/A   Clear
9:35 PM 74.5 °F - 67.5 °F 79% 29.84 in 10.0 mi Calm Calm - N/A   Clear
9:55 PM 74.8 °F - 67.6 °F 78% 29.84 in 10.0 mi SW 4.6 mph - N/A   Clear
10:15 PM 73.8 °F - 67.6 °F 81% 29.84 in 10.0 mi WSW 3.5 mph - N/A   Clear
10:35 PM 72.9 °F - 67.6 °F 84% 29.85 in 10.0 mi Calm Calm - N/A   Clear
10:55 PM 71.6 °F - 69.3 °F 92% 29.85 in 10.0 mi Calm Calm - N/A   Clear
11:15 PM 71.2 °F - 70.0 °F 96% 29.85 in 10.0 mi South 3.5 mph - N/A   Clear
11:35 PM 70.7 °F - 70.0 °F 98% 29.84 in 10.0 mi South 4.6 mph - N/A   Clear
11:55 PM 70.3 °F - 69.8 °F 98% 29.85 in 10.0 mi Calm Calm - N/A   Clear